Weather History for KCAR - November, 2013

Change the Weather History Date:

Tuesday, November 19, 2013

  Actual Average Record
Temperature  
Mean Temperature 35 °F 30 °F  
Max Temperature 41 °F 37 °F 59 °F (1953)
Min Temperature 28 °F 24 °F 1 °F (1992)
Degree Days  
Heating Degree Days 30 35  
Month to date heating degree days 555 592  
Since 1 July heating degree days 1511 1732  
Cooling Degree Days 0 0  
Month to date cooling degree days 0 0  
Year to date cooling degree days 192 180  
Moisture  
Dew Point 20 °F    
Average Humidity 59    
Maximum Humidity 70    
Minimum Humidity 47    
Precipitation  
Precipitation T in 0.12 in 0.67 in (1968)
Month to date precipitation 1.95 2.30  
Year to date precipitation 44.52 33.89  
Snow  
Snow T in 0.40 in 2.40 in (1967)
Month to date snowfall 4.2 5.1  
Since 1 July snowfall 5.2 6.8  
Since 1 September snowfall 5.2 6.8  
Snow Depth 0.00 in    
Sea Level Pressure  
Sea Level Pressure 29.69 in    
Wind  
Wind Speed 14 mph (West)    
Max Wind Speed 29 mph    
Max Gust Speed 43 mph    
Visibility 10 miles    
Events Snow    
T = Trace of Precipitation, MM = Missing Value Source: NWS Daily Summary

Daily Weather History Graph

Daily Weather History Graph

Search for Another Location

Airport or City:

Trip Planner

Search our weather history database for the weather conditions in past years. The results will help you decide how hot, cold, wet, or windy it might be!

Date:

Astronomy

Nov. 19, 2013 Rise Set
Actual Time 6:41 AM EST 3:53 PM EST
Civil Twilight 6:07 AM EST 4:27 PM EST
Nautical Twilight 5:30 AM EST 5:04 PM EST
Astronomical Twilight 4:54 AM EST 5:40 PM EST
Moon 5:40 PM EST (11/19) 8:18 AM EST (11/19)
Length of Visible Light 10h 19m
Length of Day
9h 12m
Waning Gibbous, 96% of the Moon is Illuminated
Nov 19
Waning Gibbous
Nov 25
Last Quarter
Dec 2
New
Dec 9
First Quarter
Dec 17
Full

Hourly Weather History & Observations

Time (EST) Temp. Windchill Dew Point Humidity Pressure Visibility Wind Dir Wind Speed Gust Speed Precip Events Conditions
12:54 AM 41.0 °F 34.7 °F 30.0 °F 65% 29.46 in 10.0 mi SW 10.4 mph - N/A   Partly Cloudy
1:54 AM 39.9 °F 32.9 °F 28.0 °F 63% 29.47 in 10.0 mi SW 11.5 mph - N/A   Mostly Cloudy
2:54 AM 39.0 °F 31.0 °F 26.1 °F 60% 29.48 in 10.0 mi WSW 13.8 mph 20.7 mph N/A   Clear
3:54 AM 37.9 °F 32.7 °F 26.1 °F 62% 29.50 in 10.0 mi SW 6.9 mph - N/A   Overcast
4:54 AM 37.0 °F 28.9 °F 26.1 °F 65% 29.51 in 10.0 mi SW 12.7 mph 23.0 mph N/A   Partly Cloudy
5:54 AM 36.0 °F 28.0 °F 26.1 °F 67% 29.54 in 7.0 mi WSW 11.5 mph - 0.00 in Snow Light Snow
6:54 AM 34.0 °F 24.6 °F 21.9 °F 61% 29.58 in 10.0 mi WSW 13.8 mph - 0.00 in   Mostly Cloudy
7:54 AM 33.1 °F 23.0 °F 19.0 °F 56% 29.61 in 10.0 mi West 15.0 mph 23.0 mph N/A   Mostly Cloudy
8:54 AM 34.0 °F 24.6 °F 17.1 °F 50% 29.62 in 10.0 mi West 13.8 mph 27.6 mph N/A   Clear
9:54 AM 33.1 °F 23.4 °F 18.0 °F 54% 29.63 in 10.0 mi West 13.8 mph 25.3 mph N/A   Mostly Cloudy
10:54 AM 34.0 °F 24.2 °F 18.0 °F 52% 29.64 in 10.0 mi WSW 15.0 mph 21.9 mph N/A   Mostly Cloudy
11:54 AM 36.0 °F 28.0 °F 19.0 °F 50% 29.65 in 10.0 mi West 11.5 mph 21.9 mph 0.00 in   Mostly Cloudy
12:54 PM 34.0 °F 25.5 °F 21.0 °F 59% 29.66 in 10.0 mi West 11.5 mph - N/A   Mostly Cloudy
1:54 PM 34.0 °F 25.5 °F 19.9 °F 56% 29.68 in 9.0 mi WNW 11.5 mph 21.9 mph 0.00 in   Overcast
2:54 PM 32.0 °F 22.5 °F 21.0 °F 64% 29.72 in 10.0 mi West 12.7 mph 19.6 mph N/A   Overcast
3:54 PM 32.0 °F 23.6 °F 17.1 °F 54% 29.75 in 10.0 mi NW 10.4 mph 20.7 mph N/A   Overcast
4:54 PM 32.0 °F 21.2 °F 16.0 °F 52% 29.79 in 10.0 mi WNW 16.1 mph 25.3 mph N/A   Overcast
5:54 PM 30.0 °F 19.5 °F 16.0 °F 56% 29.83 in 10.0 mi WNW 13.8 mph 25.3 mph N/A   Overcast
6:54 PM 30.0 °F 19.1 °F 14.0 °F 51% 29.86 in 10.0 mi WNW 15.0 mph 27.6 mph N/A   Overcast
7:54 PM 30.0 °F 18.3 °F 12.9 °F 49% 29.89 in 10.0 mi WNW 17.3 mph 29.9 mph 0.00 in   Overcast
8:54 PM 30.0 °F 16.6 °F 12.0 °F 47% 29.92 in 10.0 mi NW 23.0 mph 36.8 mph N/A   Overcast
9:54 PM 28.9 °F 15.8 °F 14.0 °F 54% 29.95 in 10.0 mi NW 20.7 mph 28.8 mph N/A   Overcast
10:54 PM 28.9 °F 16.1 °F 15.1 °F 56% 29.99 in 10.0 mi WNW 19.6 mph 29.9 mph N/A   Overcast
11:54 PM 28.0 °F 14.9 °F 12.0 °F 51% 30.02 in 10.0 mi NW 19.6 mph 34.5 mph 0.00 in   Overcast